Weather reports worldwide

Advertisment
Sa Pobla, Spain (8312): temperature & dewpoint: 27.06.2020 18:00:00 - 03.07.2020 18:00:00 (CEST)Sa Pobla, Spain (8312): wind speed & gusts: 27.06.2020 18:00:00 - 03.07.2020 18:00:00 (CEST)Sa Pobla, Spain (8312): wind direction: 27.06.2020 18:00:00 - 03.07.2020 18:00:00 (CEST)Sa Pobla, Spain (8312): reduced air pressure: 27.06.2020 18:00:00 - 03.07.2020 18:00:00 (CEST)Sa Pobla, Spain (8312): visibility: 27.06.2020 18:00:00 - 03.07.2020 18:00:00 (CEST)Sa Pobla, Spain (8312): sunshine duration: 27.06.2020 18:00:00 - 03.07.2020 18:00:00 (CEST)Sa Pobla, Spain (8312): precipitation: 27.06.2020 18:00:00 - 03.07.2020 18:00:00 (CEST)
Date & Time tt [°C] td [°C] ff [km/h] ff [kn] fx [km/h] fx [kn] dd ppp [hPa] vv [km] sd [min] rr [mm]
03.07.2020 18:00:00 25,1 14,8 15 8 30 16 ENE 1019,8 20 58 0,0
03.07.2020 17:00:00 25,2 14,9 16 9 36 20 ENE 1019,9 18 60 0,0
03.07.2020 16:00:00 25,6 15,9 16 9 36 20 ENE 1019,8 16 60 0,0
03.07.2020 15:00:00 25,3 16,5 19 10 34 18 ENE 1019,9 20 60 0,0
03.07.2020 14:00:00 25,3 16,5 18 10 35 19 NE 1020,1 20 41 -
03.07.2020 13:00:00 24,9 16,9 22 12 36 19 NNE 1020,3 16 14 0,0
03.07.2020 12:00:00 24,0 16,6 23 12 37 20 NNE 1020,2 19 25 0,0
03.07.2020 11:00:00 24,1 16,1 26 14 44 24 NNE 1019,6 17 21 0,0
03.07.2020 10:00:00 23,9 15,2 27 14 47 26 NNE 1019,4 16 41 0,0
03.07.2020 09:00:00 24,2 16,5 25 14 43 23 NNE 1018,6 16 45 0,0
03.07.2020 08:00:00 23,6 16,9 24 13 39 21 NNE 1018,0 17 27 -
03.07.2020 07:00:00 22,8 16,4 16 9 32 17 NNE 1017,7 19 0 0,0
03.07.2020 06:00:00 22,8 17,5 16 9 28 15 NNE 1017,4 17 0 0,0
03.07.2020 05:00:00 23,1 18,4 14 8 26 14 NNE 1017,1 17 0 0,0
03.07.2020 04:00:00 23,5 19,2 18 10 26 14 NNE 1017,2 17 0 0,0
03.07.2020 03:00:00 24,3 20,0 17 9 30 16 NE 1016,8 19 0 0,0
03.07.2020 02:00:00 24,6 20,1 13 7 28 15 NE 1016,5 20 0 -
03.07.2020 01:00:00 24,7 21,6 19 11 30 16 NNE 1016,3 17 0 0,0
03.07.2020 00:00:00 24,9 22,0 17 9 26 14 NE 1015,9 17 0 0,0
02.07.2020 23:00:00 25,0 21,3 14 8 23 12 NNE 1015,1 17 0 0,0
02.07.2020 22:00:00 25,1 21,4 14 8 22 12 NNE 1014,1 18 0 0,0
02.07.2020 21:00:00 26,2 21,4 11 6 23 12 NE 1013,6 19 18 0,0
02.07.2020 20:00:00 27,9 20,9 12 6 23 12 NE 1013,3 19 60 -
02.07.2020 19:00:00 29,1 19,4 13 7 27 15 ENE 1013,2 20 60 0,0
02.07.2020 18:00:00 29,8 19,5 13 7 27 14 ENE 1013,0 20 60 0,0
02.07.2020 17:00:00 29,7 20,3 14 8 27 14 NE 1013,1 20 60 0,0
02.07.2020 16:00:00 29,5 21,2 16 9 31 17 NE 1013,4 19 60 0,0
02.07.2020 15:00:00 29,5 20,7 16 9 30 16 NE 1013,8 20 60 0,0
02.07.2020 14:00:00 29,9 20,5 16 8 32 17 ENE 1014,1 20 60 -
02.07.2020 13:00:00 30,2 21,0 14 8 24 13 NE 1014,3 20 60 0,0
02.07.2020 12:00:00 29,4 20,3 11 6 20 11 NE 1014,2 18 60 0,0
02.07.2020 11:00:00 28,4 20,1 9 5 18 10 ENE 1014,1 20 60 0,0
02.07.2020 10:00:00 27,2 20,8 7 4 14 7 NE 1014,0 20 60 0,0
02.07.2020 09:00:00 25,8 21,4 4 2 8 5 ESE 1014,2 20 60 0,0
02.07.2020 08:00:00 23,3 20,8 3 2 9 5 SW 1013,8 15 20 -
02.07.2020 07:00:00 21,5 19,6 5 3 9 5 WSW 1013,9 17 0 0,0
02.07.2020 06:00:00 21,3 19,8 3 2 7 4 S 1013,4 15 0 0,0
02.07.2020 05:00:00 21,8 20,3 3 2 7 4 WNW 1012,9 13 0 0,0
02.07.2020 04:00:00 22,7 20,8 3 2 12 6 NW 1013,2 13 0 0,0
02.07.2020 03:00:00 22,9 21,0 5 3 9 5 NNE 1013,3 15 0 0,0
02.07.2020 02:00:00 23,1 20,5 5 3 11 6 ENE 1013,8 19 0 -
02.07.2020 01:00:00 24,0 21,9 2 1 10 5 ENE 1013,9 14 0 0,0
02.07.2020 00:00:00 24,7 22,2 6 3 18 10 S 1013,3 16 0 0,0
01.07.2020 23:00:00 25,5 21,6 10 5 19 11 SSW 1012,6 19 0 0,0
01.07.2020 22:00:00 27,2 20,1 4 2 13 7 S 1011,7 20 0 0,0
01.07.2020 21:00:00 29,4 20,0 9 5 16 9 S 1011,0 20 18 0,0
01.07.2020 20:00:00 32,5 18,3 10 5 21 12 S 1010,5 20 60 -
01.07.2020 19:00:00 33,4 19,8 6 3 19 10 SSE 1010,3 20 60 0,0
01.07.2020 18:00:00 32,4 20,7 8 4 18 10 E 1010,4 20 60 0,0
01.07.2020 17:00:00 31,8 21,1 12 6 23 13 ENE 1010,6 20 60 0,0
01.07.2020 16:00:00 31,2 21,4 13 7 25 13 ENE 1010,7 20 60 0,0
01.07.2020 15:00:00 30,6 21,4 14 8 25 14 NE 1010,9 20 60 0,0
01.07.2020 14:00:00 30,3 20,5 10 6 26 14 E 1011,4 16 60 -
01.07.2020 13:00:00 29,8 20,9 15 8 28 15 ENE 1011,3 20 60 0,0
01.07.2020 12:00:00 29,7 20,9 12 6 24 13 ENE 1011,5 20 60 0,0
01.07.2020 11:00:00 29,1 20,5 7 4 15 8 NNE 1011,6 20 60 0,0
01.07.2020 10:00:00 27,4 20,0 5 3 11 6 NE 1011,7 20 60 0,0
01.07.2020 09:00:00 25,3 21,2 4 2 8 4 NE 1012,0 20 60 0,0
01.07.2020 08:00:00 22,1 16,6 1 1 10 6 NW 1011,8 18 11 -
01.07.2020 07:00:00 19,3 15,2 3 2 7 4 W 1011,7 20 0 0,0
01.07.2020 06:00:00 19,0 15,4 3 1 8 5 SSE 1012,0 17 0 0,0
01.07.2020 05:00:00 20,5 14,8 4 2 12 7 NW 1012,0 20 0 0,0
01.07.2020 04:00:00 20,5 16,3 3 2 7 4 ENE 1012,0 17 0 0,0
01.07.2020 03:00:00 21,3 17,7 1 1 10 5 N 1012,6 18 0 0,0
01.07.2020 02:00:00 22,9 18,2 4 2 9 5 SSW 1013,7 20 0 -
01.07.2020 01:00:00 23,0 18,5 2 1 8 4 SSW 1014,2 20 0 0,0
01.07.2020 00:00:00 24,1 18,8 5 3 10 6 S 1014,1 20 0 0,0
30.06.2020 23:00:00 24,5 18,5 3 1 11 6 S 1013,8 20 0 0,0
30.06.2020 22:00:00 25,8 17,9 11 6 16 9 ESE 1013,0 20 0 0,0
30.06.2020 21:00:00 27,8 17,1 11 6 18 10 ESE 1013,5 20 6 0,0
30.06.2020 20:00:00 28,6 20,1 13 7 24 13 NE 1013,2 20 60 -
30.06.2020 19:00:00 30,4 19,8 16 9 29 15 NNE 1013,2 20 60 0,0
30.06.2020 18:00:00 31,6 18,9 14 8 30 16 NE 1013,5 20 60 0,0
30.06.2020 17:00:00 33,6 16,0 14 8 31 17 SE 1014,0 20 60 0,0
30.06.2020 16:00:00 33,4 16,3 16 9 32 17 SE 1014,4 20 60 0,0
30.06.2020 15:00:00 32,5 16,7 16 8 27 15 SE 1014,8 20 60 0,0
30.06.2020 14:00:00 33,0 17,6 14 8 24 13 E 1015,2 20 60 -
30.06.2020 13:00:00 31,6 18,2 10 5 23 13 E 1015,6 20 60 0,0
30.06.2020 12:00:00 30,6 19,3 11 6 22 12 S 1015,9 20 60 0,0
30.06.2020 11:00:00 28,1 19,8 5 3 12 6 ENE 1016,4 17 60 0,0
30.06.2020 10:00:00 26,6 20,5 6 3 13 7 NNE 1016,2 17 60 0,0
30.06.2020 09:00:00 25,4 20,7 4 2 8 4 ENE 1016,1 20 60 0,0
30.06.2020 08:00:00 21,9 18,7 3 2 6 4 S 1016,1 17 46 -
30.06.2020 07:00:00 19,8 17,9 3 2 6 3 WSW 1016,0 14 0 0,0
30.06.2020 06:00:00 19,3 17,5 1 1 5 3 WSW 1015,9 13 0 0,0
30.06.2020 05:00:00 19,8 17,8 1 1 7 4 W 1016,0 13 0 0,0
30.06.2020 04:00:00 20,0 17,8 1 0 7 4 E 1016,0 13 0 0,0
30.06.2020 03:00:00 21,8 18,8 5 3 10 5 SW 1016,5 14 0 0,0
30.06.2020 02:00:00 22,2 18,4 4 2 8 4 WSW 1016,8 18 0 -
30.06.2020 01:00:00 22,8 17,5 3 2 10 5 SSW 1017,0 20 0 0,0
30.06.2020 00:00:00 23,6 17,4 6 3 9 5 SE 1016,8 19 0 0,0
29.06.2020 23:00:00 25,2 20,9 3 2 14 8 S 1016,7 17 0 0,0
29.06.2020 22:00:00 26,5 20,8 6 4 14 8 SSW 1016,3 19 0 0,0
29.06.2020 21:00:00 28,0 20,8 8 5 21 11 SW 1015,9 19 18 0,0
29.06.2020 20:00:00 29,1 21,1 11 6 20 11 NNE 1015,7 18 60 -
29.06.2020 19:00:00 30,4 20,7 9 5 19 10 N 1015,8 20 60 0,0
29.06.2020 18:00:00 29,4 20,8 13 7 24 13 NE 1016,2 20 60 0,0
29.06.2020 17:00:00 29,5 21,4 14 8 29 16 NE 1016,6 19 60 0,0
29.06.2020 16:00:00 29,3 21,5 19 10 31 17 NE 1016,9 20 60 0,0
29.06.2020 15:00:00 29,7 20,5 15 8 29 16 NE 1017,4 16 60 0,0
29.06.2020 14:00:00 30,1 21,2 14 8 29 16 ENE 1017,7 19 60 -
29.06.2020 13:00:00 30,0 21,4 13 7 27 14 NE 1018,0 18 60 0,0
29.06.2020 12:00:00 30,6 21,4 10 5 20 11 E 1018,0 20 60 0,0
29.06.2020 11:00:00 28,9 20,1 6 3 12 7 NE 1018,1 18 60 0,0
29.06.2020 10:00:00 27,4 20,0 3 2 9 5 SE 1018,1 18 60 0,0
29.06.2020 09:00:00 26,0 20,8 3 2 7 4 ESE 1018,1 20 60 0,0
29.06.2020 08:00:00 22,8 20,0 1 1 6 3 SSW 1018,0 12 52 -
29.06.2020 07:00:00 20,6 19,4 2 1 5 3 SW 1017,9 8 0 0,0
29.06.2020 06:00:00 20,7 19,6 4 2 6 4 SSW 1017,4 9 0 0,0
29.06.2020 05:00:00 20,9 19,6 5 3 7 4 W 1017,5 10 0 0,0
29.06.2020 04:00:00 21,3 19,9 2 1 4 2 S 1017,7 8 0 0,0
29.06.2020 03:00:00 22,1 20,4 2 1 8 4 NW 1018,0 10 0 0,0
29.06.2020 02:00:00 22,6 20,7 5 3 10 5 SSW 1017,8 11 0 -
29.06.2020 01:00:00 23,2 20,7 5 3 10 5 SSW 1018,1 12 0 0,0
29.06.2020 00:00:00 23,6 20,1 4 2 15 8 S 1017,9 7 0 0,0
28.06.2020 23:00:00 24,6 20,1 8 4 16 8 SSW 1017,8 14 0 0,0
28.06.2020 22:00:00 26,0 19,1 5 3 13 7 SSW 1017,2 16 0 0,0
28.06.2020 21:00:00 27,1 20,5 4 2 12 7 ENE 1016,9 17 20 0,0
28.06.2020 20:00:00 27,9 19,4 9 5 21 12 N 1016,9 19 56 -
28.06.2020 19:00:00 28,9 20,3 11 6 25 14 NE 1017,0 20 60 0,0
28.06.2020 18:00:00 28,9 20,6 17 9 25 14 NE 1017,2 16 60 0,0
28.06.2020 17:00:00 29,1 21,1 14 8 29 16 NE 1017,5 16 60 0,0
28.06.2020 16:00:00 29,5 21,2 16 9 29 15 NE 1017,8 20 60 0,0
28.06.2020 15:00:00 29,7 20,3 13 7 26 14 ENE 1018,2 20 60 0,0
28.06.2020 14:00:00 29,3 20,2 12 6 21 12 NE 1018,2 17 60 -
28.06.2020 13:00:00 28,8 19,4 9 5 21 11 ENE 1018,7 16 60 0,0
28.06.2020 12:00:00 28,4 20,1 8 5 21 12 ENE 1018,7 17 60 0,0
28.06.2020 11:00:00 27,7 19,5 10 5 20 11 E 1018,4 15 60 0,0
28.06.2020 10:00:00 26,5 19,6 6 4 11 6 E 1018,5 18 60 0,0
28.06.2020 09:00:00 24,5 19,8 3 2 7 4 N 1018,4 16 60 0,0
28.06.2020 08:00:00 21,9 19,6 1 1 7 4 W 1018,2 10 56 -
28.06.2020 07:00:00 19,8 18,6 3 2 7 4 ENE 1017,7 8 0 0,0
28.06.2020 06:00:00 19,7 18,4 3 1 8 4 S 1017,4 8 0 0,0
28.06.2020 05:00:00 20,5 18,8 5 3 8 5 SSW 1017,2 10 0 0,0
28.06.2020 04:00:00 21,1 19,2 4 2 11 6 S 1017,6 10 0 0,0
28.06.2020 03:00:00 21,1 19,2 5 3 10 5 SSW 1018,0 11 0 0,0
28.06.2020 02:00:00 21,6 19,5 4 2 8 4 SW 1018,0 12 0 -
28.06.2020 01:00:00 22,1 19,6 4 2 6 3 WNW 1017,8 12 0 0,0
28.06.2020 00:00:00 22,6 20,0 1 1 5 3 NNW 1017,4 12 0 0,0
27.06.2020 23:00:00 23,5 20,5 4 2 11 6 NE 1017,2 11 0 0,0
27.06.2020 22:00:00 24,0 20,5 5 3 17 9 ENE 1016,5 13 0 0,0
27.06.2020 21:00:00 24,8 20,5 10 5 21 11 ENE 1016,0 14 21 0,0
27.06.2020 20:00:00 26,3 20,6 11 6 24 13 NE 1015,7 15 60 -
27.06.2020 19:00:00 27,2 20,5 13 7 25 14 ENE 1015,6 16 60 0,0
27.06.2020 18:00:00 28,2 20,0 13 7 28 15 ENE 1015,7 16 60 0,0

tt = temperature
td = dewpoint
ff = wind speed
fx = gusts
dd = wind direction
ppp = reduced air pressure
vv = visibility
sd = sunshine duration
rr = precipitation

Next stations